TimeEDT,TemperatureF,Dew PointF,Humidity,Sea Level PressureIn,VisibilityMPH,Wind Direction,Wind SpeedMPH,Gust SpeedMPH,PrecipitationIn,Events,Conditions,WindDirDegrees,DateUTC
12:15 AM,35.1,22.5,60,30.26,10.0,West,3.5,-,N/A,,Overcast,280,2012-10-27 04:15:00
12:36 AM,34.7,22.5,61,30.26,10.0,WNW,3.5,-,N/A,,Overcast,290,2012-10-27 04:36:00
12:56 AM,34.7,22.1,60,30.26,10.0,West,3.5,-,N/A,,Overcast,280,2012-10-27 04:56:00
1:15 AM,34.3,22.1,61,30.26,10.0,WSW,3.5,-,N/A,,Overcast,250,2012-10-27 05:15:00
1:36 AM,34.3,21.6,60,30.26,10.0,West,4.6,-,N/A,,Overcast,280,2012-10-27 05:36:00
1:56 AM,33.6,21.9,62,30.25,10.0,WSW,3.5,-,N/A,,Mostly Cloudy,250,2012-10-27 05:56:00
2:15 AM,33.1,21.7,63,30.25,10.0,WSW,3.5,-,N/A,,Clear,250,2012-10-27 06:15:00
2:36 AM,32.4,21.9,65,30.25,10.0,Calm,Calm,-,N/A,,Clear,0,2012-10-27 06:36:00
2:56 AM,32.0,22.1,67,30.24,10.0,Calm,Calm,-,N/A,,Clear,0,2012-10-27 06:56:00
3:16 AM,31.3,22.1,69,30.25,10.0,Calm,Calm,-,N/A,,Clear,0,2012-10-27 07:16:00
3:36 AM,30.2,21.4,70,30.24,10.0,West,3.5,-,N/A,,Clear,260,2012-10-27 07:36:00
3:55 AM,30.0,21.4,70,30.25,10.0,West,4.6,-,N/A,,Clear,260,2012-10-27 07:55:00
4:16 AM,29.7,21.9,73,30.25,10.0,Calm,Calm,-,N/A,,Clear,0,2012-10-27 08:16:00
4:36 AM,30.0,20.5,68,30.25,10.0,SW,3.5,-,N/A,,Clear,220,2012-10-27 08:36:00
4:55 AM,29.3,21.2,72,30.25,10.0,Calm,Calm,-,N/A,,Clear,0,2012-10-27 08:55:00
5:16 AM,28.4,21.2,74,30.25,10.0,Calm,Calm,-,N/A,,Clear,0,2012-10-27 09:16:00
5:35 AM,28.6,21.0,73,30.25,10.0,Calm,Calm,-,N/A,,Clear,0,2012-10-27 09:35:00
5:56 AM,27.1,21.2,78,30.25,10.0,Calm,Calm,-,N/A,,Clear,0,2012-10-27 09:56:00
6:50 AM,26.6,21.2,80,30.26,10.0,Calm,Calm,-,N/A,,Clear,0,2012-10-27 10:50:00
7:50 AM,24.8,19.4,80,30.27,10.0,Calm,Calm,-,N/A,,Clear,0,2012-10-27 11:50:00
8:55 AM,24.8,21.2,86,30.29,10.0,West,4.6,-,N/A,,Clear,270,2012-10-27 12:55:00
9:55 AM,30.2,23.0,75,30.30,10.0,West,3.5,-,N/A,,Clear,270,2012-10-27 13:55:00
10:50 AM,32.0,23.0,69,30.29,10.0,West,9.2,-,N/A,,Overcast,280,2012-10-27 14:50:00
11:55 AM,35.6,23.0,60,30.29,10.0,West,8.1,-,N/A,,Overcast,280,2012-10-27 15:55:00
12:50 PM,37.4,19.4,48,30.27,10.0,NW,11.5,16.1,N/A,,Overcast,320,2012-10-27 16:50:00
1:55 PM,35.6,19.4,52,30.28,10.0,WNW,10.4,-,N/A,,Overcast,300,2012-10-27 17:55:00
2:55 PM,37.4,15.8,41,30.26,10.0,West,6.9,-,N/A,,Overcast,260,2012-10-27 18:55:00
3:55 PM,37.4,15.8,41,30.26,10.0,NNW,8.1,-,N/A,,Overcast,330,2012-10-27 19:55:00
5:50 PM,37.4,12.2,36,30.27,10.0,WNW,6.9,-,N/A,,Scattered Clouds,300,2012-10-27 21:50:00
6:55 PM,33.8,14.0,44,30.28,10.0,Calm,Calm,-,N/A,,Clear,0,2012-10-27 22:55:00
8:50 PM,30.2,17.6,60,30.29,10.0,North,5.8,-,N/A,,Clear,350,2012-10-28 00:50:00
9:50 PM,30.2,21.2,69,30.30,10.0,Calm,Calm,-,N/A,,Clear,0,2012-10-28 01:50:00
10:16 PM,29.3,21.9,74,30.31,10.0,Calm,Calm,-,N/A,,Clear,0,2012-10-28 02:16:00
10:36 PM,28.4,21.2,74,30.31,10.0,Calm,Calm,-,N/A,,Clear,0,2012-10-28 02:36:00
10:56 PM,28.4,21.9,77,30.31,10.0,Calm,Calm,-,N/A,,Clear,0,2012-10-28 02:56:00
11:15 PM,28.2,21.9,77,30.31,10.0,Calm,Calm,-,N/A,,Clear,0,2012-10-28 03:15:00
11:36 PM,27.7,21.6,78,30.32,10.0,Calm,Calm,-,N/A,,Clear,0,2012-10-28 03:36:00
11:56 PM,27.1,21.7,80,30.32,10.0,Calm,Calm,-,N/A,,Clear,0,2012-10-28 03:56:00